Regional Weather Roundup
Issued by NWS Charleston, SC

Current Version | Previous Version | Graphics & Text | Print | Product List | Glossary On
Versions: 1 2 3 4 5 6 7 8 9 10 11 12 13 14 15 16 17 18 19 20 21 22 23 24 25 26 27 28 29 30 31 32 33 34 35 36 37 38 39 40 41 42 43 44 45 46 47 48 49 50
460
ASUS42 KCHS 060112
RWRCHS

REGIONAL WEATHER ROUNDUP
NATIONAL WEATHER SERVICE CHARLESTON SC
800 PM EST MON DEC 05 2016

NOTE: "FAIR" INDICATES FEW OR NO CLOUDS BELOW 12,000 FEET WITH NO
SIGNIFICANT WEATHER AND/OR OBSTRUCTIONS TO VISIBILITY.

NOT ALL STATIONS ARE QUALITY CONTROLLED. USE DATA WITH CAUTION...
ESPECIALLY DEWPOINT OBSERVATIONS.

SCZ027-030-031-034>040-042>050-060200-
...SOUTHEAST SOUTH CAROLINA...

CITY           SKY/WX    TMP DP  RH WIND       PRES   REMARKS
N CHARLESTON   RAIN      58  55  90 E12       29.99R FOG
WATERFRONT PRK   N/A     58  57  96 NE8       29.96R
MOUNT PLEASANT NOT AVBL
JOHNS ISLAND   CLOUDY    57  57 100 N6G13     29.99R FOG
PINOPOLIS        N/A     55  55 100 NE15      29.89F
MONCKS CORNER  HVY RAIN  54  52  94 E3        30.00R
SUMMERVILLE    RAIN     N/A N/A N/A CALM      30.01R
BEAUFORT MCAS  LGT RAIN  58  57  97 NE8       29.97R
BEAUFORT ARPT  CLOUDY    59  57  94 NE9       29.97R FOG
HILTON HEAD IS CLOUDY    59  59 100 N8        29.97R
WALTERBORO     HVY RAIN  57 N/A N/A NE5       29.99F
ALLENDALE      RAIN      55  55 100 NE6       29.96S

...SOUTHERN MIDLANDS AND PEE DEE...

CITY           SKY/WX    TMP DP  RH WIND       PRES   REMARKS
GEORGETOWN     NOT AVBL
KINGSTREE      DRIZZLE   54  50  87 CALM      30.00F
ORANGEBURG     CLOUDY    54  51  90 E3        29.99R
BARNWELL       NOT AVBL
AIKEN          CLOUDY    54  50  87 E6        30.01R
MANNING        MOCLDY    52  52 100 N5        29.99F
COLUMBIA       CLOUDY    58  50  75 E6        29.99R
SUMTER         CLOUDY    55  51  86 E7        29.99R
FLORENCE       LGT RAIN  54  53  97 NE8       30.01F
MYRTLE BEACH   RAIN      57  52  82 NE9       30.04R
N MYRTLE BEACH LGT RAIN  55  52  89 NE7       30.03R

$$

GAZ063-065-086>088-099>101-113>116-118-119-134>141-150-060200-
...SOUTHEAST GEORGIA...

CITY           SKY/WX    TMP DP  RH WIND       PRES   REMARKS
SAVANNAH ARPT  LGT RAIN  59  57  93 E9        29.95S VSB 1
HUNTER AAF     LGT RAIN  61  61 100 NE7       29.93R FOG
FORT STEWART   RAIN      61  61 100 NE6       29.89F FOG
STATESBORO     LGT RAIN  57  57  99 CALM      29.95S
SYLVANIA       RAIN     N/A N/A N/A E5        29.96R
CLAXTON        RAIN     N/A N/A N/A NE7       29.94F

...CSRA...CENTRAL AND FAR SOUTHEAST GEORGIA...

CITY           SKY/WX    TMP DP  RH WIND       PRES   REMARKS
THOMSON        CLOUDY    55  55 100 E3        30.00S
AUGUSTA-BUSH   RAIN      57  53  86 CALM      29.98R FOG
AUGUSTA-DANIEL HVY RAIN  55  51  86 E9        29.98R FOG
SWAINSBORO     HVY RAIN  54  54 100 E7        29.95F
VIDALIA        RAIN      59  59 100 NE9       29.93R
EASTMAN        HVY RAIN  57  57 100 NE7       29.93F
HAZLEHURST     HVY RAIN  61  61 100 NE3       29.92R
ALMA           TSTM      61  61 100 NE6       29.87F FOG
WAYCROSS       TSTM      67  67 100 E8        29.87F
JESUP          HVY RAIN  64  64 100 E6        29.90S
BAXLEY         CLOUDY    61  61 100 E3        29.91R
BRUNSWICK      TSTM      64  64 100 NE6       29.90F
SAINT SIMONS   TSTM      64  64 100 NE9       29.88F FOG

$$

SCZ027-028-034-036>038-045-046-048>050-GAZ119-141-060200-
...LAKE AND SUPPLEMENTAL COASTAL OBSERVATIONS...

STATION/POSITION TIME  TEMP    WIND        PRES    WAVE   SWELL
                       AIR SEA DIR/SP/G            HT/PER HT/PER/DIR
                 (UTC) (F)     (DEG/KT/KT) (MB)    (FT/S) (FT/S/D)
WINYAH BAY       2345   59      60/  8     1015.0
LAKE MURRAY      0020   56      60/  1/  5 1015.2
ACE BASIN NERRS  2345   58        CALM     1014.0
FORT PULASKI     0048   60 62   60/ 12/ 15 1014.4R
SAPELO ISLAND    0000   63      40/  7     1013.0

$$

ANZ835-935-AMZ111-154-330-350-352-354-370-450-454-472-060200-
...C-MAN AND BUOY OBSERVATIONS...

STATION/POSITION TIME  TEMP    WIND        PRES    WAVE   SWELL
                       AIR SEA DIR/SP/G            HT/PER HT/PER/DIR
                 (UTC) (F)     (DEG/KT/KT) (MB)    (FT/S) (FT/S/D)
BUOY 41004       0050   68 73   80/ 16/ 17 1013.6R   4/ 6   2/ 60/11
BUOY 41008       0050   65 65   50/ 14/ 16 1012.5F   3/ 5   2/120/ 8
FOLLY BEACH CMAN 0000   59      60/ 17/ 18 1014.9R
CAPERS NEARSHORE 0008   59 62   60/ 16/ 23 1014.6R
FRIPP NEARSHORE  0008   61 62   60/ 14/ 17 1014.2R


STATION/POSITION TIME  TEMP    WIND        PRES    WAVE   SWELL
                       AIR SEA DIR/SP/G            HT/PER HT/PER/DIR
                 (UTC) (F)     (DEG/KT/KT) (MB)    (FT/S) (FT/S/D)
5E ST. MARYS GA  0100      66                N/A     3/ 5
FRYING PAN BUOY  0040   66 74   60/ 17/ 21 1015.5F
BUOY 41025       0050   57 76   20/ 16/ 21 1016.9R   5/ 8   3/130/ 8
CAPE LOOKOUT NC  0000   56      50/ 20/ 22 1016.5R
BUOY 41002       0050   71 74  230/ 16/ 19 1015.6R   6/ 6   2/ 10/10
BUOY 41010       NOT AVBL
ST AUGUSTINE FL  0100   70 68  180/ 10/ 11 1012.7F


$$




USA.gov is the U.S. government's official web portal to all federal, state and local government web resources and services.